contact:dominique.lefevre@mio.osupytheas.fr, maurice.libes@osupytheas.fr, didier.mallarino@osupytheas.fr
Project:EMSO http://www.emso-fr.org/EMSO-France
Depth: 2436.0 m
Title:EMSO Ligure Ouest : Data MII capteur MICROCAT
DateTime_Computer,Latitude,Longitude,Temperature,Conductivity,Pressure,DateTime_Instrument
DateTime_Computer,Latitude,Longitude,degC,S m-1,dbar,DateTime_Instrument
2022-11-24T00:00:07Z,42.805,6.029,13.3014,4.60057,2470.427,2022-11-24T02:02:06Z
2022-11-24T00:03:10Z,42.805,6.029,13.3013,4.60056,2470.413,2022-11-24T02:05:09Z
2022-11-24T00:06:13Z,42.805,6.029,13.3011,4.60055,2470.427,2022-11-24T02:08:12Z
2022-11-24T00:09:16Z,42.805,6.029,13.3010,4.60056,2470.399,2022-11-24T02:11:15Z
2022-11-24T00:12:19Z,42.805,6.029,13.3009,4.60054,2470.39,2022-11-24T02:14:18Z
2022-11-24T00:15:22Z,42.805,6.029,13.3013,4.60055,2470.437,2022-11-24T02:17:21Z
2022-11-24T00:18:26Z,42.805,6.029,13.3010,4.60056,2470.39,2022-11-24T02:20:24Z
2022-11-24T00:21:29Z,42.805,6.029,13.3009,4.60056,2470.39,2022-11-24T02:23:28Z
2022-11-24T00:24:32Z,42.805,6.029,13.3009,4.60057,2470.404,2022-11-24T02:26:31Z
2022-11-24T00:27:35Z,42.805,6.029,13.3010,4.60056,2470.39,2022-11-24T02:29:34Z
2022-11-24T00:30:38Z,42.805,6.029,13.3010,4.60055,2470.404,2022-11-24T02:32:37Z
2022-11-24T00:33:41Z,42.805,6.029,13.3011,4.60055,2470.366,2022-11-24T02:35:40Z
2022-11-24T00:36:44Z,42.805,6.029,13.3015,4.60057,2470.39,2022-11-24T02:38:43Z
2022-11-24T00:39:47Z,42.805,6.029,13.3009,4.60056,2470.427,2022-11-24T02:41:46Z
2022-11-24T00:42:50Z,42.805,6.029,13.3012,4.60055,2470.39,2022-11-24T02:44:49Z
2022-11-24T00:45:53Z,42.805,6.029,13.3009,4.60055,2470.404,2022-11-24T02:47:52Z
2022-11-24T00:48:56Z,42.805,6.029,13.3009,4.60056,2470.38,2022-11-24T02:50:55Z
2022-11-24T00:51:59Z,42.805,6.029,13.3010,4.60055,2470.39,2022-11-24T02:53:58Z
2022-11-24T00:55:03Z,42.805,6.029,13.3008,4.60056,2470.39,2022-11-24T02:57:01Z
2022-11-24T00:58:06Z,42.805,6.029,13.3007,4.60056,2470.39,2022-11-24T03:00:05Z
2022-11-24T01:01:09Z,42.805,6.029,13.3008,4.60056,2470.357,2022-11-24T03:03:08Z
2022-11-24T01:04:12Z,42.805,6.029,13.3009,4.60057,2470.38,2022-11-24T03:06:11Z
2022-11-24T01:07:15Z,42.805,6.029,13.3009,4.60057,2470.366,2022-11-24T03:09:14Z
2022-11-24T01:10:18Z,42.805,6.029,13.3009,4.60054,2470.39,2022-11-24T03:12:17Z
2022-11-24T01:13:21Z,42.805,6.029,13.3009,4.60057,2470.404,2022-11-24T03:15:20Z
2022-11-24T01:16:24Z,42.805,6.029,13.3009,4.60056,2470.366,2022-11-24T03:18:23Z
2022-11-24T01:19:27Z,42.805,6.029,13.3014,4.60056,2470.38,2022-11-24T03:21:26Z
2022-11-24T01:22:30Z,42.805,6.029,13.3012,4.60055,2470.366,2022-11-24T03:24:29Z
2022-11-24T01:25:33Z,42.805,6.029,13.3008,4.60058,2470.366,2022-11-24T03:27:32Z
2022-11-24T01:28:36Z,42.805,6.029,13.3011,4.60055,2470.39,2022-11-24T03:30:35Z
2022-11-24T01:31:39Z,42.805,6.029,13.3012,4.60055,2470.427,2022-11-24T03:33:38Z
2022-11-24T01:34:43Z,42.805,6.029,13.3011,4.60055,2470.39,2022-11-24T03:36:41Z
2022-11-24T01:37:46Z,42.805,6.029,13.3006,4.60056,2470.39,2022-11-24T03:39:45Z
2022-11-24T01:40:49Z,42.805,6.029,13.3012,4.60057,2470.427,2022-11-24T03:42:48Z
2022-11-24T01:43:52Z,42.805,6.029,13.3009,4.60056,2470.413,2022-11-24T03:45:51Z
2022-11-24T01:46:55Z,42.805,6.029,13.3011,4.60057,2470.413,2022-11-24T03:48:54Z
2022-11-24T01:49:58Z,42.805,6.029,13.3007,4.60057,2470.39,2022-11-24T03:51:57Z
2022-11-24T01:53:01Z,42.805,6.029,13.3011,4.60057,2470.427,2022-11-24T03:55:00Z
2022-11-24T01:56:04Z,42.805,6.029,13.3007,4.60057,2470.404,2022-11-24T03:58:03Z
2022-11-24T01:59:07Z,42.805,6.029,13.3009,4.60057,2470.404,2022-11-24T04:01:06Z
2022-11-24T02:02:10Z,42.805,6.029,13.3011,4.60055,2470.404,2022-11-24T04:04:09Z
2022-11-24T02:05:13Z,42.805,6.029,13.3014,4.60056,2470.399,2022-11-24T04:07:12Z
2022-11-24T02:08:16Z,42.805,6.029,13.3011,4.60056,2470.39,2022-11-24T04:10:15Z
2022-11-24T02:11:19Z,42.805,6.029,13.3009,4.60057,2470.413,2022-11-24T04:13:18Z
2022-11-24T02:14:23Z,42.805,6.029,13.3012,4.60057,2470.427,2022-11-24T04:16:21Z
2022-11-24T02:17:26Z,42.805,6.029,13.3011,4.60055,2470.413,2022-11-24T04:19:25Z
2022-11-24T02:20:29Z,42.805,6.029,13.3006,4.60056,2470.399,2022-11-24T04:22:28Z
2022-11-24T02:23:32Z,42.805,6.029,13.3009,4.60057,2470.413,2022-11-24T04:25:31Z
2022-11-24T02:26:35Z,42.805,6.029,13.3011,4.60057,2470.376,2022-11-24T04:28:34Z
2022-11-24T02:29:38Z,42.805,6.029,13.3012,4.60057,2470.413,2022-11-24T04:31:37Z
2022-11-24T02:32:41Z,42.805,6.029,13.3009,4.60055,2470.437,2022-11-24T04:34:40Z
2022-11-24T02:35:44Z,42.805,6.029,13.3008,4.60054,2470.45,2022-11-24T04:37:43Z
2022-11-24T02:38:47Z,42.805,6.029,13.3012,4.60057,2470.437,2022-11-24T04:40:46Z
2022-11-24T02:41:50Z,42.805,6.029,13.3009,4.60057,2470.427,2022-11-24T04:43:49Z
2022-11-24T02:44:53Z,42.805,6.029,13.3014,4.60057,2470.427,2022-11-24T04:46:52Z
2022-11-24T02:47:56Z,42.805,6.029,13.3011,4.60054,2470.45,2022-11-24T04:49:55Z
2022-11-24T02:51:00Z,42.805,6.029,13.3011,4.60055,2470.45,2022-11-24T04:52:58Z
2022-11-24T02:54:03Z,42.805,6.029,13.3008,4.60055,2470.437,2022-11-24T04:56:02Z
2022-11-24T02:57:06Z,42.805,6.029,13.3013,4.60055,2470.46,2022-11-24T04:59:05Z
2022-11-24T03:00:09Z,42.805,6.029,13.3009,4.60056,2470.46,2022-11-24T05:02:08Z
2022-11-24T03:03:12Z,42.805,6.029,13.3009,4.60055,2470.507,2022-11-24T05:05:11Z
2022-11-24T03:06:15Z,42.805,6.029,13.3011,4.60055,2470.413,2022-11-24T05:08:14Z
2022-11-24T03:09:18Z,42.805,6.029,13.3006,4.60054,2470.483,2022-11-24T05:11:17Z
2022-11-24T03:12:21Z,42.805,6.029,13.3013,4.60057,2470.474,2022-11-24T05:14:20Z
2022-11-24T03:15:24Z,42.805,6.029,13.3009,4.60055,2470.46,2022-11-24T05:17:23Z
2022-11-24T03:18:27Z,42.805,6.029,13.3012,4.60056,2470.46,2022-11-24T05:20:26Z
2022-11-24T03:21:30Z,42.805,6.029,13.3011,4.60054,2470.483,2022-11-24T05:23:29Z
2022-11-24T03:24:33Z,42.805,6.029,13.3007,4.60054,2470.437,2022-11-24T05:26:32Z
2022-11-24T03:27:36Z,42.805,6.029,13.3009,4.60055,2470.497,2022-11-24T05:29:35Z
2022-11-24T03:30:40Z,42.805,6.029,13.3009,4.60056,2470.52,2022-11-24T05:32:38Z
2022-11-24T03:33:43Z,42.805,6.029,13.3007,4.60054,2470.474,2022-11-24T05:35:42Z
2022-11-24T03:36:46Z,42.805,6.029,13.3006,4.60057,2470.507,2022-11-24T05:38:45Z
2022-11-24T03:39:49Z,42.805,6.029,13.3008,4.60054,2470.52,2022-11-24T05:41:48Z
2022-11-24T03:42:52Z,42.805,6.029,13.3009,4.60054,2470.53,2022-11-24T05:44:51Z
2022-11-24T03:45:55Z,42.805,6.029,13.3009,4.60055,2470.483,2022-11-24T05:47:54Z
2022-11-24T03:48:58Z,42.805,6.029,13.3006,4.60055,2470.52,2022-11-24T05:50:57Z
2022-11-24T03:52:01Z,42.805,6.029,13.3010,4.60056,2470.507,2022-11-24T05:54:00Z
2022-11-24T03:55:04Z,42.805,6.029,13.3011,4.60054,2470.52,2022-11-24T05:57:03Z
2022-11-24T03:58:07Z,42.805,6.029,13.3009,4.60055,2470.507,2022-11-24T06:00:06Z
2022-11-24T04:01:10Z,42.805,6.029,13.3014,4.60055,2470.507,2022-11-24T06:03:09Z
2022-11-24T04:04:13Z,42.805,6.029,13.3011,4.60056,2470.52,2022-11-24T06:06:12Z
2022-11-24T04:07:16Z,42.805,6.029,13.3006,4.60057,2470.544,2022-11-24T06:09:15Z
2022-11-24T04:10:20Z,42.805,6.029,13.3013,4.60056,2470.53,2022-11-24T06:12:18Z
2022-11-24T04:13:23Z,42.805,6.029,13.3009,4.60054,2470.53,2022-11-24T06:15:22Z
2022-11-24T04:16:26Z,42.805,6.029,13.3010,4.60057,2470.507,2022-11-24T06:18:25Z
2022-11-24T04:19:29Z,42.805,6.029,13.3012,4.60055,2470.591,2022-11-24T06:21:28Z
2022-11-24T04:22:32Z,42.805,6.029,13.3009,4.60055,2470.53,2022-11-24T06:24:31Z
2022-11-24T04:25:35Z,42.805,6.029,13.3008,4.60056,2470.577,2022-11-24T06:27:34Z
2022-11-24T04:28:38Z,42.805,6.029,13.3010,4.60057,2470.6,2022-11-24T06:30:37Z
2022-11-24T04:31:41Z,42.805,6.029,13.3012,4.60056,2470.539,2022-11-24T06:33:40Z
2022-11-24T04:34:44Z,42.805,6.029,13.3010,4.60056,2470.577,2022-11-24T06:36:43Z
2022-11-24T04:37:47Z,42.805,6.029,13.3007,4.60055,2470.553,2022-11-24T06:39:46Z
2022-11-24T04:40:50Z,42.805,6.029,13.3011,4.60055,2470.614,2022-11-24T06:42:49Z
2022-11-24T04:43:53Z,42.805,6.029,13.3006,4.60055,2470.577,2022-11-24T06:45:52Z
2022-11-24T04:46:56Z,42.805,6.029,13.3009,4.60056,2470.591,2022-11-24T06:48:55Z
2022-11-24T04:50:00Z,42.805,6.029,13.3007,4.60057,2470.637,2022-11-24T06:51:58Z
2022-11-24T04:53:03Z,42.805,6.029,13.3007,4.60055,2470.577,2022-11-24T06:55:02Z
2022-11-24T04:56:06Z,42.805,6.029,13.3007,4.60056,2470.577,2022-11-24T06:58:05Z
2022-11-24T04:59:09Z,42.805,6.029,13.3009,4.60056,2470.6,2022-11-24T07:01:08Z
2022-11-24T05:02:12Z,42.805,6.029,13.3011,4.60056,2470.6,2022-11-24T07:04:11Z
2022-11-24T05:05:15Z,42.805,6.029,13.3011,4.60056,2470.614,2022-11-24T07:07:14Z
2022-11-24T05:08:18Z,42.805,6.029,13.3011,4.60054,2470.6,2022-11-24T07:10:17Z
2022-11-24T05:11:21Z,42.805,6.029,13.3011,4.60056,2470.646,2022-11-24T07:13:20Z
2022-11-24T05:14:24Z,42.805,6.029,13.3008,4.60056,2470.6,2022-11-24T07:16:23Z
2022-11-24T05:17:27Z,42.805,6.029,13.3014,4.60057,2470.577,2022-11-24T07:19:26Z
2022-11-24T05:20:30Z,42.805,6.029,13.3011,4.60055,2470.646,2022-11-24T07:22:29Z
2022-11-24T05:23:33Z,42.805,6.029,13.3008,4.60057,2470.624,2022-11-24T07:25:32Z
2022-11-24T05:26:36Z,42.805,6.029,13.3014,4.60056,2470.6,2022-11-24T07:28:35Z
2022-11-24T05:29:40Z,42.805,6.029,13.3012,4.60057,2470.614,2022-11-24T07:31:38Z
2022-11-24T05:32:43Z,42.805,6.029,13.3010,4.60055,2470.624,2022-11-24T07:34:42Z
2022-11-24T05:35:46Z,42.805,6.029,13.3009,4.60055,2470.624,2022-11-24T07:37:45Z
2022-11-24T05:38:49Z,42.805,6.029,13.3010,4.60055,2470.624,2022-11-24T07:40:48Z
2022-11-24T05:41:52Z,42.805,6.029,13.3010,4.60056,2470.661,2022-11-24T07:43:51Z
2022-11-24T05:44:55Z,42.805,6.029,13.3011,4.60054,2470.646,2022-11-24T07:46:54Z
2022-11-24T05:47:58Z,42.805,6.029,13.3012,4.60056,2470.67,2022-11-24T07:49:57Z
2022-11-24T05:51:01Z,42.805,6.029,13.3006,4.60055,2470.707,2022-11-24T07:53:00Z
2022-11-24T05:54:04Z,42.805,6.029,13.3008,4.60056,2470.646,2022-11-24T07:56:03Z
2022-11-24T05:57:07Z,42.805,6.029,13.3008,4.60055,2470.67,2022-11-24T07:59:06Z
2022-11-24T06:00:10Z,42.805,6.029,13.3009,4.60054,2470.646,2022-11-24T08:02:09Z
2022-11-24T06:03:13Z,42.805,6.029,13.3010,4.60056,2470.693,2022-11-24T08:05:12Z
2022-11-24T06:06:16Z,42.805,6.029,13.3009,4.60057,2470.67,2022-11-24T08:08:15Z
2022-11-24T06:09:19Z,42.805,6.029,13.3011,4.60056,2470.646,2022-11-24T08:11:18Z
2022-11-24T06:12:23Z,42.805,6.029,13.3013,4.60055,2470.646,2022-11-24T08:14:22Z
2022-11-24T06:15:26Z,42.805,6.029,13.3009,4.60057,2470.684,2022-11-24T08:17:25Z
2022-11-24T06:18:29Z,42.805,6.029,13.3009,4.60056,2470.693,2022-11-24T08:20:28Z
2022-11-24T06:21:32Z,42.805,6.029,13.3010,4.60057,2470.684,2022-11-24T08:23:31Z
2022-11-24T06:24:35Z,42.805,6.029,13.3014,4.60057,2470.693,2022-11-24T08:26:34Z
2022-11-24T06:27:38Z,42.805,6.029,13.3009,4.60056,2470.646,2022-11-24T08:29:37Z
2022-11-24T06:30:41Z,42.805,6.029,13.3011,4.60057,2470.67,2022-11-24T08:32:40Z
2022-11-24T06:33:44Z,42.805,6.029,13.3007,4.60056,2470.707,2022-11-24T08:35:43Z
2022-11-24T06:36:47Z,42.805,6.029,13.3011,4.60055,2470.67,2022-11-24T08:38:46Z
2022-11-24T06:39:50Z,42.805,6.029,13.3008,4.60055,2470.707,2022-11-24T08:41:49Z
2022-11-24T06:42:53Z,42.805,6.029,13.3009,4.60056,2470.73,2022-11-24T08:44:52Z
2022-11-24T06:45:56Z,42.805,6.029,13.3012,4.60056,2470.717,2022-11-24T08:47:55Z
2022-11-24T06:49:00Z,42.805,6.029,13.3008,4.60055,2470.693,2022-11-24T08:50:58Z
2022-11-24T06:52:03Z,42.805,6.029,13.3006,4.60054,2470.67,2022-11-24T08:54:02Z
2022-11-24T06:55:06Z,42.805,6.029,13.3006,4.60055,2470.717,2022-11-24T08:57:05Z
2022-11-24T06:58:09Z,42.805,6.029,13.3006,4.60055,2470.717,2022-11-24T09:00:08Z
2022-11-24T07:01:12Z,42.805,6.029,13.3007,4.60056,2470.67,2022-11-24T09:03:11Z
2022-11-24T07:04:15Z,42.805,6.029,13.3011,4.60055,2470.707,2022-11-24T09:06:14Z
2022-11-24T07:07:18Z,42.805,6.029,13.3009,4.60056,2470.717,2022-11-24T09:09:17Z
2022-11-24T07:10:21Z,42.805,6.029,13.3011,4.60057,2470.684,2022-11-24T09:12:20Z
2022-11-24T07:13:24Z,42.805,6.029,13.3011,4.60056,2470.74,2022-11-24T09:15:23Z
2022-11-24T07:16:27Z,42.805,6.029,13.3013,4.60057,2470.693,2022-11-24T09:18:26Z
2022-11-24T07:19:30Z,42.805,6.029,13.3011,4.60055,2470.73,2022-11-24T09:21:29Z
2022-11-24T07:22:33Z,42.805,6.029,13.3006,4.60055,2470.693,2022-11-24T09:24:32Z
2022-11-24T07:25:36Z,42.805,6.029,13.3006,4.60056,2470.73,2022-11-24T09:27:35Z
2022-11-24T07:28:40Z,42.805,6.029,13.3010,4.60057,2470.717,2022-11-24T09:30:38Z
2022-11-24T07:31:43Z,42.805,6.029,13.3011,4.60056,2470.693,2022-11-24T09:33:42Z
2022-11-24T07:34:46Z,42.805,6.029,13.3011,4.60057,2470.693,2022-11-24T09:36:45Z
2022-11-24T07:37:49Z,42.805,6.029,13.3009,4.60056,2470.754,2022-11-24T09:39:48Z
2022-11-24T07:40:52Z,42.805,6.029,13.3008,4.60056,2470.717,2022-11-24T09:42:51Z
2022-11-24T07:43:55Z,42.805,6.029,13.3007,4.60055,2470.717,2022-11-24T09:45:54Z
2022-11-24T07:46:58Z,42.805,6.029,13.3005,4.60057,2470.754,2022-11-24T09:48:57Z
2022-11-24T07:50:01Z,42.805,6.029,13.3011,4.60055,2470.73,2022-11-24T09:52:00Z
2022-11-24T07:53:04Z,42.805,6.029,13.3010,4.60057,2470.73,2022-11-24T09:55:03Z
2022-11-24T07:56:07Z,42.805,6.029,13.3009,4.60057,2470.717,2022-11-24T09:58:06Z
2022-11-24T07:59:10Z,42.805,6.029,13.3010,4.60057,2470.717,2022-11-24T10:01:09Z
2022-11-24T08:02:13Z,42.805,6.029,13.3011,4.60058,2470.717,2022-11-24T10:04:12Z
2022-11-24T08:05:16Z,42.805,6.029,13.3009,4.60057,2470.754,2022-11-24T10:07:15Z
2022-11-24T08:08:20Z,42.805,6.029,13.3009,4.60055,2470.717,2022-11-24T10:10:18Z
2022-11-24T08:11:23Z,42.805,6.029,13.3011,4.60058,2470.717,2022-11-24T10:13:22Z
2022-11-24T08:14:26Z,42.805,6.029,13.3009,4.60055,2470.74,2022-11-24T10:16:25Z
2022-11-24T08:17:29Z,42.805,6.029,13.3008,4.60057,2470.693,2022-11-24T10:19:28Z
2022-11-24T08:20:32Z,42.805,6.029,13.3009,4.60057,2470.717,2022-11-24T10:22:31Z
2022-11-24T08:23:35Z,42.805,6.029,13.3006,4.60056,2470.693,2022-11-24T10:25:34Z
2022-11-24T08:26:38Z,42.805,6.029,13.3011,4.60057,2470.693,2022-11-24T10:28:37Z
2022-11-24T08:29:41Z,42.805,6.029,13.3009,4.60055,2470.693,2022-11-24T10:31:40Z
2022-11-24T08:32:44Z,42.805,6.029,13.3010,4.60055,2470.693,2022-11-24T10:34:43Z
2022-11-24T08:35:47Z,42.805,6.029,13.3009,4.60056,2470.717,2022-11-24T10:37:46Z
2022-11-24T08:38:50Z,42.805,6.029,13.3007,4.60056,2470.693,2022-11-24T10:40:49Z
2022-11-24T08:41:53Z,42.805,6.029,13.3004,4.60055,2470.693,2022-11-24T10:43:52Z
2022-11-24T08:44:57Z,42.805,6.029,13.3008,4.60056,2470.693,2022-11-24T10:46:56Z
2022-11-24T08:48:00Z,42.805,6.029,13.3009,4.60057,2470.717,2022-11-24T10:49:59Z
2022-11-24T08:51:03Z,42.805,6.029,13.3007,4.60054,2470.679,2022-11-24T10:53:02Z
2022-11-24T08:54:06Z,42.805,6.029,13.3006,4.60057,2470.684,2022-11-24T10:56:05Z
2022-11-24T08:57:09Z,42.805,6.029,13.3009,4.60054,2470.67,2022-11-24T10:59:08Z
2022-11-24T09:00:12Z,42.805,6.029,13.3006,4.60056,2470.693,2022-11-24T11:02:11Z
2022-11-24T09:03:15Z,42.805,6.029,13.3007,4.60054,2470.684,2022-11-24T11:05:14Z
2022-11-24T09:06:18Z,42.805,6.029,13.3009,4.60057,2470.67,2022-11-24T11:08:17Z
2022-11-24T09:09:21Z,42.805,6.029,13.3009,4.60056,2470.684,2022-11-24T11:11:20Z
2022-11-24T09:12:24Z,42.805,6.029,13.3009,4.60055,2470.679,2022-11-24T11:14:23Z
2022-11-24T09:15:27Z,42.805,6.029,13.3008,4.60056,2470.684,2022-11-24T11:17:26Z
2022-11-24T09:18:30Z,42.805,6.029,13.3006,4.60055,2470.684,2022-11-24T11:20:29Z
2022-11-24T09:21:34Z,42.805,6.029,13.3013,4.60055,2470.684,2022-11-24T11:23:32Z
2022-11-24T09:24:37Z,42.805,6.029,13.3009,4.60055,2470.684,2022-11-24T11:26:36Z
2022-11-24T09:27:40Z,42.805,6.029,13.3010,4.60057,2470.717,2022-11-24T11:29:39Z
2022-11-24T09:30:43Z,42.805,6.029,13.3007,4.60057,2470.693,2022-11-24T11:32:42Z
2022-11-24T09:33:46Z,42.805,6.029,13.3009,4.60054,2470.67,2022-11-24T11:35:45Z
2022-11-24T09:36:49Z,42.805,6.029,13.3006,4.60054,2470.684,2022-11-24T11:38:48Z
2022-11-24T09:39:52Z,42.805,6.029,13.3006,4.60056,2470.67,2022-11-24T11:41:51Z
2022-11-24T09:42:55Z,42.805,6.029,13.3011,4.60055,2470.646,2022-11-24T11:44:54Z
2022-11-24T09:45:58Z,42.805,6.029,13.3009,4.60056,2470.693,2022-11-24T11:47:57Z
2022-11-24T09:49:01Z,42.805,6.029,13.3008,4.60056,2470.684,2022-11-24T11:51:00Z
2022-11-24T09:52:04Z,42.805,6.029,13.3006,4.60054,2470.67,2022-11-24T11:54:03Z
2022-11-24T09:55:07Z,42.805,6.029,13.3009,4.60055,2470.646,2022-11-24T11:57:06Z
2022-11-24T09:58:11Z,42.805,6.029,13.3008,4.60055,2470.624,2022-11-24T12:00:10Z
2022-11-24T10:01:14Z,42.805,6.029,13.3009,4.60054,2470.624,2022-11-24T12:03:13Z
2022-11-24T10:04:17Z,42.805,6.029,13.3007,4.60057,2470.693,2022-11-24T12:06:16Z
2022-11-24T10:07:20Z,42.805,6.029,13.3011,4.60057,2470.646,2022-11-24T12:09:19Z
2022-11-24T10:10:23Z,42.805,6.029,13.3007,4.60056,2470.661,2022-11-24T12:12:22Z
2022-11-24T10:13:26Z,42.805,6.029,13.3009,4.60055,2470.6,2022-11-24T12:15:25Z
2022-11-24T10:16:29Z,42.805,6.029,13.3009,4.60054,2470.661,2022-11-24T12:18:28Z
2022-11-24T10:19:32Z,42.805,6.029,13.3006,4.60054,2470.624,2022-11-24T12:21:31Z
2022-11-24T10:22:35Z,42.805,6.029,13.3009,4.60054,2470.633,2022-11-24T12:24:34Z
2022-11-24T10:25:38Z,42.805,6.029,13.3009,4.60055,2470.646,2022-11-24T12:27:37Z
2022-11-24T10:28:41Z,42.805,6.029,13.3009,4.60055,2470.637,2022-11-24T12:30:40Z
2022-11-24T10:31:44Z,42.805,6.029,13.3009,4.60055,2470.637,2022-11-24T12:33:43Z
2022-11-24T10:34:48Z,42.805,6.029,13.3008,4.60056,2470.624,2022-11-24T12:36:46Z
2022-11-24T10:37:51Z,42.805,6.029,13.3012,4.60055,2470.586,2022-11-24T12:39:50Z
2022-11-24T10:40:54Z,42.805,6.029,13.3007,4.60056,2470.646,2022-11-24T12:42:53Z
2022-11-24T10:43:57Z,42.805,6.029,13.3009,4.60055,2470.624,2022-11-24T12:45:56Z
2022-11-24T10:47:00Z,42.805,6.029,13.3006,4.60054,2470.646,2022-11-24T12:48:59Z
2022-11-24T10:50:03Z,42.805,6.029,13.3007,4.60056,2470.6,2022-11-24T12:52:02Z
2022-11-24T10:53:06Z,42.805,6.029,13.3010,4.60056,2470.624,2022-11-24T12:55:05Z
2022-11-24T10:56:09Z,42.805,6.029,13.3006,4.60058,2470.637,2022-11-24T12:58:08Z
2022-11-24T10:59:12Z,42.805,6.029,13.3011,4.60056,2470.6,2022-11-24T13:01:11Z
2022-11-24T11:02:15Z,42.805,6.029,13.3011,4.60056,2470.6,2022-11-24T13:04:14Z
2022-11-24T11:05:18Z,42.805,6.029,13.3011,4.60056,2470.6,2022-11-24T13:07:17Z
2022-11-24T11:08:21Z,42.805,6.029,13.3009,4.60057,2470.624,2022-11-24T13:10:20Z
2022-11-24T11:11:25Z,42.805,6.029,13.3011,4.60057,2470.6,2022-11-24T13:13:23Z
2022-11-24T11:14:28Z,42.805,6.029,13.3005,4.60056,2470.6,2022-11-24T13:16:27Z
2022-11-24T11:17:31Z,42.805,6.029,13.3006,4.60055,2470.637,2022-11-24T13:19:30Z
2022-11-24T11:20:34Z,42.805,6.029,13.3009,4.60056,2470.614,2022-11-24T13:22:33Z
2022-11-24T11:23:37Z,42.805,6.029,13.3003,4.60057,2470.577,2022-11-24T13:25:36Z
2022-11-24T11:26:40Z,42.805,6.029,13.3011,4.60056,2470.591,2022-11-24T13:28:39Z
2022-11-24T11:29:43Z,42.805,6.029,13.3010,4.60057,2470.6,2022-11-24T13:31:42Z
2022-11-24T11:32:46Z,42.805,6.029,13.3011,4.60055,2470.591,2022-11-24T13:34:45Z
2022-11-24T11:35:49Z,42.805,6.029,13.3009,4.60055,2470.577,2022-11-24T13:37:48Z
2022-11-24T11:38:52Z,42.805,6.029,13.3006,4.60055,2470.591,2022-11-24T13:40:51Z
2022-11-24T11:41:55Z,42.805,6.029,13.3009,4.60055,2470.577,2022-11-24T13:43:54Z
2022-11-24T11:44:58Z,42.805,6.029,13.3008,4.60055,2470.591,2022-11-24T13:46:57Z
2022-11-24T11:48:02Z,42.805,6.029,13.3011,4.60054,2470.563,2022-11-24T13:50:00Z
2022-11-24T11:51:05Z,42.805,6.029,13.3004,4.60054,2470.614,2022-11-24T13:53:04Z
2022-11-24T11:54:08Z,42.805,6.029,13.3006,4.60055,2470.553,2022-11-24T13:56:07Z
2022-11-24T11:57:11Z,42.805,6.029,13.3011,4.60055,2470.591,2022-11-24T13:59:10Z
2022-11-24T12:00:14Z,42.805,6.029,13.3006,4.60055,2470.591,2022-11-24T14:02:13Z
2022-11-24T12:03:17Z,42.805,6.029,13.3011,4.60056,2470.53,2022-11-24T14:05:16Z
2022-11-24T12:06:20Z,42.805,6.029,13.3009,4.60055,2470.553,2022-11-24T14:08:19Z
2022-11-24T12:09:23Z,42.805,6.029,13.3005,4.60054,2470.591,2022-11-24T14:11:22Z
2022-11-24T12:12:26Z,42.805,6.029,13.3010,4.60055,2470.591,2022-11-24T14:14:25Z
2022-11-24T12:15:29Z,42.805,6.029,13.3007,4.60055,2470.544,2022-11-24T14:17:28Z
2022-11-24T12:18:32Z,42.805,6.029,13.3012,4.60056,2470.567,2022-11-24T14:20:31Z
2022-11-24T12:21:35Z,42.805,6.029,13.3011,4.60057,2470.577,2022-11-24T14:23:34Z
2022-11-24T12:24:39Z,42.805,6.029,13.3005,4.60054,2470.553,2022-11-24T14:26:38Z
2022-11-24T12:27:42Z,42.805,6.029,13.3006,4.60055,2470.53,2022-11-24T14:29:41Z
2022-11-24T12:30:45Z,42.805,6.029,13.3011,4.60055,2470.52,2022-11-24T14:32:44Z
2022-11-24T12:33:48Z,42.805,6.029,13.3009,4.60054,2470.553,2022-11-24T14:35:47Z
2022-11-24T12:36:51Z,42.805,6.029,13.3005,4.60054,2470.53,2022-11-24T14:38:50Z
2022-11-24T12:39:54Z,42.805,6.029,13.3007,4.60054,2470.553,2022-11-24T14:41:53Z
2022-11-24T12:42:57Z,42.805,6.029,13.3009,4.60055,2470.507,2022-11-24T14:44:56Z
2022-11-24T12:46:00Z,42.805,6.029,13.3009,4.60054,2470.567,2022-11-24T14:47:59Z
2022-11-24T12:49:03Z,42.805,6.029,13.3009,4.60054,2470.553,2022-11-24T14:51:02Z
2022-11-24T12:52:06Z,42.805,6.029,13.3008,4.60054,2470.544,2022-11-24T14:54:05Z
2022-11-24T12:55:09Z,42.805,6.029,13.3009,4.60053,2470.544,2022-11-24T14:57:08Z
2022-11-24T12:58:12Z,42.805,6.029,13.3006,4.60054,2470.544,2022-11-24T15:00:11Z
2022-11-24T13:01:16Z,42.805,6.029,13.3012,4.60054,2470.507,2022-11-24T15:03:14Z
2022-11-24T13:04:19Z,42.805,6.029,13.3012,4.60054,2470.507,2022-11-24T15:06:18Z
2022-11-24T13:07:22Z,42.805,6.029,13.3005,4.60053,2470.507,2022-11-24T15:09:21Z
2022-11-24T13:10:25Z,42.805,6.029,13.3009,4.60056,2470.507,2022-11-24T15:12:24Z
2022-11-24T13:13:28Z,42.805,6.029,13.3006,4.60053,2470.53,2022-11-24T15:15:27Z
2022-11-24T13:16:31Z,42.805,6.029,13.3005,4.60053,2470.53,2022-11-24T15:18:30Z
2022-11-24T13:19:34Z,42.805,6.029,13.3011,4.60054,2470.497,2022-11-24T15:21:33Z
2022-11-24T13:22:37Z,42.805,6.029,13.3009,4.60054,2470.52,2022-11-24T15:24:36Z
2022-11-24T13:25:40Z,42.805,6.029,13.3004,4.60054,2470.507,2022-11-24T15:27:39Z
2022-11-24T13:28:43Z,42.805,6.029,13.3006,4.60053,2470.507,2022-11-24T15:30:42Z
2022-11-24T13:31:46Z,42.805,6.029,13.3009,4.60052,2470.483,2022-11-24T15:33:45Z
2022-11-24T13:34:49Z,42.805,6.029,13.3007,4.60053,2470.483,2022-11-24T15:36:48Z
2022-11-24T13:37:53Z,42.805,6.029,13.3006,4.60054,2470.507,2022-11-24T15:39:51Z
2022-11-24T13:40:56Z,42.805,6.029,13.3011,4.60052,2470.52,2022-11-24T15:42:55Z
2022-11-24T13:43:59Z,42.805,6.029,13.3009,4.60054,2470.507,2022-11-24T15:45:58Z
2022-11-24T13:47:02Z,42.805,6.029,13.3009,4.60052,2470.483,2022-11-24T15:49:01Z
2022-11-24T13:50:05Z,42.805,6.029,13.3004,4.60054,2470.507,2022-11-24T15:52:04Z
2022-11-24T13:53:08Z,42.805,6.029,13.3011,4.60054,2470.52,2022-11-24T15:55:07Z
2022-11-24T13:56:11Z,42.805,6.029,13.3010,4.60052,2470.507,2022-11-24T15:58:10Z
2022-11-24T13:59:14Z,42.805,6.029,13.3007,4.60054,2470.507,2022-11-24T16:01:13Z
2022-11-24T14:02:17Z,42.805,6.029,13.3005,4.60053,2470.497,2022-11-24T16:04:16Z
2022-11-24T14:05:20Z,42.805,6.029,13.3007,4.60054,2470.507,2022-11-24T16:07:19Z
2022-11-24T14:08:23Z,42.805,6.029,13.3011,4.60054,2470.52,2022-11-24T16:10:22Z
2022-11-24T14:11:26Z,42.805,6.029,13.3011,4.60054,2470.507,2022-11-24T16:13:25Z
2022-11-24T14:14:29Z,42.805,6.029,13.3009,4.60054,2470.507,2022-11-24T16:16:28Z
2022-11-24T14:17:33Z,42.805,6.029,13.3008,4.60053,2470.483,2022-11-24T16:19:32Z
2022-11-24T14:20:36Z,42.805,6.029,13.3007,4.60056,2470.47,2022-11-24T16:22:35Z
2022-11-24T14:23:39Z,42.805,6.029,13.3008,4.60054,2470.53,2022-11-24T16:25:38Z
2022-11-24T14:26:42Z,42.805,6.029,13.3006,4.60054,2470.497,2022-11-24T16:28:41Z
2022-11-24T14:29:45Z,42.805,6.029,13.3009,4.60053,2470.507,2022-11-24T16:31:44Z
2022-11-24T14:32:48Z,42.805,6.029,13.3008,4.60056,2470.53,2022-11-24T16:34:47Z
2022-11-24T14:35:51Z,42.805,6.029,13.3011,4.60056,2470.483,2022-11-24T16:37:50Z
2022-11-24T14:38:54Z,42.805,6.029,13.3009,4.60053,2470.507,2022-11-24T16:40:53Z
2022-11-24T14:41:57Z,42.805,6.029,13.3011,4.60052,2470.46,2022-11-24T16:43:56Z
2022-11-24T14:45:00Z,42.805,6.029,13.3010,4.60052,2470.507,2022-11-24T16:46:59Z
2022-11-24T14:48:03Z,42.805,6.029,13.3008,4.60053,2470.53,2022-11-24T16:50:02Z
2022-11-24T14:51:07Z,42.805,6.029,13.3005,4.60053,2470.53,2022-11-24T16:53:05Z
2022-11-24T14:54:10Z,42.805,6.029,13.3011,4.60052,2470.507,2022-11-24T16:56:09Z
2022-11-24T14:57:13Z,42.805,6.029,13.3007,4.60053,2470.507,2022-11-24T16:59:12Z
2022-11-24T15:00:16Z,42.805,6.029,13.3006,4.60053,2470.507,2022-11-24T17:02:15Z